Regional Weather Roundup
Issued by NWS

Home | Current Version | Previous Version | Text Only | Print | Product List | Glossary On
Versions: 1 2 3 4 5 6 7 8 9 10 11 12 13 14 15 16 17 18 19 20 21 22 23 24 25 26 27 28 29 30 31 32 33 34 35 36 37 38 39 40 41 42 43 44 45 46 47 48 49 50
000
ASUS44 KBMX 250510
RWRAL

ALABAMA REGIONAL WEATHER ROUNDUP
NATIONAL WEATHER SERVICE BIRMINGHAM AL
1200 AM CDT FRI JUL 25 2014

NOTE: "FAIR" INDICATES FEW OR NO CLOUDS BELOW 12,000 FEET
WITH NO SIGNIFICANT WEATHER AND/OR OBSTRUCTIONS TO VISIBILITY.

THE REMARK "TC" DENOTES TEMPERATURE IN DEGREES CELSIUS.

ALZ001>011-014-016>018-020-250600-
NORTH ALABAMA

CITY           SKY/WX    TMP DP  RH WIND       PRES   REMARKS
MUSCLE SHOALS  CLEAR     69  64  84 CALM      30.03R
HUNTSVILLE     CLEAR     70  65  84 CALM      30.02R
DECATUR        CLEAR     68  66  93 CALM      30.02R
HALEYVILLE     FAIR      65  65 100 CALM      30.06S
GADSDEN        MOCLDY    70  64  83 CALM      30.01R
$$

ALZ012-013-022-023-030>036-040>044-250600-
WEST CENTRAL ALABAMA

CITY           SKY/WX    TMP DP  RH WIND       PRES   REMARKS
TUSCALOOSA     CLEAR     76  67  73 N5        30.01S
$$

ALZ015-024>027-033>036-040>044-250600-
CENTRAL ALABAMA

CITY           SKY/WX    TMP DP  RH WIND       PRES   REMARKS
BIRMINGHAM     PTCLDY    73  68  84 CALM      30.03S
MONTGOMERY     CLOUDY    77  72  84 CALM      30.00R
SHELBY CO ARPT CLEAR     75  73  93 CALM      30.01S FOG
MAXWELL AFB    PTCLDY    77  73  88 SW2       29.99S
GREENVILLE     FAIR      77  72  84 CALM      30.01R
$$

ALZ019-021-028-029-037-038-045>048-250600-
EAST CENTRAL ALABAMA

CITY           SKY/WX    TMP DP  RH WIND       PRES   REMARKS
ANNISTON       CLEAR     72  70  93 SW5       30.01R
ALEXANDER CITY CLEAR     76  71  85 CALM      30.02R
AUBURN         CLEAR     73  70  88 SW6       30.05R
$$

ALZ051>064-250600-
SOUTHWEST ALABAMA

CITY           SKY/WX    TMP DP  RH WIND       PRES   REMARKS
MOBILE         CLEAR     75  74  96 CALM      30.01S
BROOKLEY FIELD CLEAR     76  74  93 CALM      30.01S
EVERGREEN      PTCLDY    76  73  91 CALM      30.02S
$$

ALZ049-050-065>069-250600-
SOUTHEAST ALABAMA

CITY           SKY/WX    TMP DP  RH WIND       PRES   REMARKS
DOTHAN         PTCLDY    76  73  91 SW6       30.06R
OZARK          MOCLDY    76  74  94 SW5       30.01F
TROY           LGT RAIN  75  72  90 S7        30.02R FOG
EUFAULA        CLOUDY    77  73  87 CALM      29.99S
$$



USA.gov is the U.S. government's official web portal to all federal, state and local government web resources and services.